• în Republica Moldova
  • Lista ţărilor
  • Pe 7 zile
  • Temperatura apei
  • Hartă satelitară
  • Meteo pe hartă
  • Widget-uri
  • user-avatar
    Intrare

    Meteo pe oră la Kaprun

    Astăzi, 22 Februarie, Joi

    Timp Temperatura Precipitaţii Vânt Presiune Umiditate
    00:00 -13°C° 0,1 mm 1 m/s 587 mmHg 94%
    01:00 -13°C° 0,1 mm 1 m/s 587 mmHg 94%
    02:00 -13°C° 0,1 mm 1 m/s 587 mmHg 94%
    03:00 -14°C° 0,1 mm 1 m/s 586 mmHg 94%
    04:00 -14°C° 0,1 mm 1 m/s 586 mmHg 94%
    05:00 -14°C° 0,1 mm 1 m/s 586 mmHg 94%
    06:00 -14°C° 0,1 mm 1 m/s 586 mmHg 93%
    07:00 -14°C° 0,1 mm 1 m/s 586 mmHg 93%
    08:00 -12°C° 0,2 mm 1 m/s 587 mmHg 92%
    09:00 -11°C° 0,2 mm 1 m/s 587 mmHg 92%
    10:00 -10°C° 0,2 mm 1 m/s 588 mmHg 91%
    11:00 -10°C° 0,2 mm 2 m/s 588 mmHg 90%
    12:00 -9°C° 0,2 mm 2 m/s 588 mmHg 90%
    13:00 -8°C° 0,2 mm 2 m/s 588 mmHg 89%
    14:00 -8°C° 0,2 mm 2 m/s 588 mmHg 90%
    15:00 -8°C° 0,2 mm 2 m/s 588 mmHg 92%
    16:00 -9°C° 0,2 mm 2 m/s 588 mmHg 93%
    17:00 -8°C° 0,2 mm 1 m/s 588 mmHg 94%
    18:00 -9°C° 0,2 mm 1 m/s 588 mmHg 95%
    19:00 -10°C° 0,2 mm 1 m/s 588 mmHg 96%
    20:00 -11°C° 0 mm 1 m/s 587 mmHg 96%
    21:00 -12°C° 0 mm 1 m/s 587 mmHg 95%
    22:00 -12°C° 0 mm 1 m/s 587 mmHg 95%
    23:00 -13°C° 0 mm 1 m/s 587 mmHg 93%

    Mâine, 23 Februarie, Vineri

    Timp Temperatura Precipitaţii Vânt Presiune Umiditate
    00:00 -13°C° 0 mm 1 m/s 587 mmHg 92%
    01:00 -14°C° 0 mm 1 m/s 586 mmHg 91%
    02:00 -13°C° 0 mm 1 m/s 586 mmHg 90%
    03:00 -13°C° 0 mm 1 m/s 586 mmHg 89%
    04:00 -13°C° 0 mm 1 m/s 586 mmHg 88%
    05:00 -13°C° 0 mm 1 m/s 586 mmHg 88%
    06:00 -13°C° 0 mm 1 m/s 586 mmHg 87%
    07:00 -13°C° 0 mm 1 m/s 586 mmHg 87%
    08:00 -11°C° 0,1 mm 1 m/s 587 mmHg 87%
    09:00 -9°C° 0,1 mm 1 m/s 588 mmHg 87%
    10:00 -7°C° 0,1 mm 1 m/s 589 mmHg 86%
    11:00 -7°C° 0,2 mm 2 m/s 589 mmHg 88%
    12:00 -6°C° 0,2 mm 2 m/s 590 mmHg 90%
    13:00 -6°C° 0,2 mm 2 m/s 590 mmHg 92%
    14:00 -5°C° 0,1 mm 2 m/s 590 mmHg 92%
    15:00 -5°C° 0,1 mm 2 m/s 590 mmHg 92%
    16:00 -5°C° 0,1 mm 2 m/s 590 mmHg 92%
    17:00 -7°C° 0 mm 2 m/s 590 mmHg 93%
    18:00 -7°C° 0 mm 1 m/s 589 mmHg 94%
    19:00 -9°C° 0 mm 1 m/s 589 mmHg 95%
    20:00 -9°C° 0 mm 1 m/s 589 mmHg 93%
    21:00 -9°C° 0 mm 1 m/s 589 mmHg 91%
    22:00 -10°C° 0 mm 1 m/s 589 mmHg 89%
    23:00 -10°C° 0 mm 1 m/s 589 mmHg 89%

    Poimâine, 24 Februarie, Sâmbătă

    Timp Temperatura Precipitaţii Vânt Presiune Umiditate
    00:00 -10°C° 0 mm 1 m/s 589 mmHg 88%
    01:00 -10°C° 0 mm 1 m/s 589 mmHg 88%
    02:00 -10°C° 0 mm 1 m/s 589 mmHg 88%
    03:00 -9°C° 0 mm 1 m/s 589 mmHg 88%
    04:00 -9°C° 0 mm 1 m/s 589 mmHg 89%
    05:00 -10°C° 0 mm 1 m/s 589 mmHg 89%
    06:00 -10°C° 0 mm 1 m/s 589 mmHg 90%
    07:00 -10°C° 0 mm 1 m/s 589 mmHg 90%
    08:00 -8°C° 0 mm 1 m/s 590 mmHg 90%
    09:00 -6°C° 0 mm 1 m/s 591 mmHg 90%
    10:00 -3°C° 0 mm 1 m/s 592 mmHg 90%
    11:00 -2°C° 0 mm 1 m/s 592 mmHg 92%
    12:00 -2°C° 0 mm 1 m/s 592 mmHg 94%
    13:00 -1°C° 0 mm 1 m/s 592 mmHg 96%
    14:00 -2°C° 0,1 mm 1 m/s 592 mmHg 96%
    15:00 -2°C° 0,1 mm 1 m/s 592 mmHg 96%
    16:00 -2°C° 0,1 mm 1 m/s 591 mmHg 95%
    17:00 -3°C° 0,1 mm 1 m/s 591 mmHg 96%
    18:00 -4°C° 0,1 mm 1 m/s 591 mmHg 96%
    19:00 -6°C° 0,1 mm 1 m/s 591 mmHg 96%
    20:00 -7°C° 0,1 mm 1 m/s 591 mmHg 96%
    21:00 -7°C° 0,1 mm 1 m/s 591 mmHg 96%
    22:00 -8°C° 0,1 mm 1 m/s 591 mmHg 96%
    23:00 -8°C° 0,1 mm 1 m/s 591 mmHg 96%

    25 Februarie, Duminică

    Timp Temperatura Precipitaţii Vânt Presiune Umiditate
    00:00 -8°C° 0,1 mm 1 m/s 591 mmHg 96%
    01:00 -9°C° 0,1 mm 1 m/s 591 mmHg 96%
    02:00 -9°C° 0,2 mm 1 m/s 590 mmHg 96%
    03:00 -10°C° 0,2 mm 1 m/s 590 mmHg 96%
    04:00 -10°C° 0,2 mm 1 m/s 590 mmHg 96%
    05:00 -11°C° 0,2 mm 1 m/s 590 mmHg 96%
    06:00 -11°C° 0,2 mm 1 m/s 590 mmHg 95%
    07:00 -12°C° 0,2 mm 1 m/s 589 mmHg 95%
    08:00 -12°C° 0,3 mm 1 m/s 590 mmHg 94%
    09:00 -11°C° 0,3 mm 1 m/s 590 mmHg 94%
    10:00 -13°C° 0,3 mm 2 m/s 590 mmHg 93%
    11:00 -13°C° 0,5 mm 2 m/s 590 mmHg 93%
    12:00 -13°C° 0,5 mm 2 m/s 590 mmHg 93%
    13:00 -13°C° 0,5 mm 2 m/s 590 mmHg 92%
    14:00 -13°C° 0,4 mm 2 m/s 589 mmHg 92%
    15:00 -14°C° 0,4 mm 2 m/s 589 mmHg 93%
    16:00 -14°C° 0,4 mm 2 m/s 589 mmHg 93%
    17:00 -15°C° 0,3 mm 2 m/s 589 mmHg 93%
    18:00 -16°C° 0,3 mm 2 m/s 589 mmHg 94%
    19:00 -17°C° 0,3 mm 2 m/s 588 mmHg 95%
    20:00 -18°C° 0,2 mm 2 m/s 588 mmHg 95%
    21:00 -18°C° 0,2 mm 2 m/s 588 mmHg 95%
    22:00 -19°C° 0,2 mm 2 m/s 588 mmHg 95%
    23:00 -19°C° 0,1 mm 2 m/s 588 mmHg 95%

    26 Februarie, Luni

    Timp Temperatura Precipitaţii Vânt Presiune Umiditate
    00:00 -20°C° 0,1 mm 2 m/s 588 mmHg 95%
    01:00 -20°C° 0,1 mm 2 m/s 587 mmHg 95%
    02:00 -21°C° 0,1 mm 2 m/s 587 mmHg 95%
    03:00 -21°C° 0,1 mm 2 m/s 587 mmHg 95%
    04:00 -23°C° 0,1 mm 2 m/s 586 mmHg 95%
    05:00 -23°C° 0,1 mm 2 m/s 586 mmHg 95%
    06:00 -23°C° 0,1 mm 2 m/s 586 mmHg 95%
    07:00 -24°C° 0,1 mm 2 m/s 586 mmHg 95%
    08:00 -23°C° 0 mm 2 m/s 586 mmHg 93%
    09:00 -21°C° 0 mm 2 m/s 586 mmHg 90%
    10:00 -22°C° 0 mm 3 m/s 587 mmHg 88%
    11:00 -21°C° 0,1 mm 3 m/s 587 mmHg 87%
    12:00 -21°C° 0,1 mm 3 m/s 587 mmHg 85%
    13:00 -19°C° 0,1 mm 3 m/s 587 mmHg 84%
    14:00 -19°C° 0,1 mm 3 m/s 586 mmHg 85%
    15:00 -21°C° 0,1 mm 3 m/s 586 mmHg 85%
    16:00 -21°C° 0,1 mm 3 m/s 586 mmHg 86%
    17:00 -22°C° 0,1 mm 3 m/s 585 mmHg 88%
    18:00 -21°C° 0,1 mm 2 m/s 585 mmHg 91%
    19:00 -23°C° 0,1 mm 2 m/s 585 mmHg 93%
    20:00 -24°C° 0,1 mm 2 m/s 585 mmHg 94%
    21:00 -24°C° 0,1 mm 2 m/s 584 mmHg 94%
    22:00 -24°C° 0,1 mm 2 m/s 584 mmHg 94%
    23:00 -25°C° 0,1 mm 2 m/s 584 mmHg 94%

    27 Februarie, Marţi

    Timp Temperatura Precipitaţii Vânt Presiune Umiditate
    00:00 -25°C° 0,1 mm 2 m/s 584 mmHg 94%
    01:00 -25°C° 0,1 mm 2 m/s 583 mmHg 94%
    02:00 -25°C° 0,1 mm 2 m/s 583 mmHg 94%
    03:00 -26°C° 0,1 mm 2 m/s 583 mmHg 94%
    04:00 -26°C° 0,1 mm 2 m/s 582 mmHg 94%
    05:00 -26°C° 0,1 mm 2 m/s 582 mmHg 94%
    06:00 -26°C° 0,1 mm 2 m/s 582 mmHg 94%
    07:00 -26°C° 0,1 mm 2 m/s 582 mmHg 94%
    08:00 -25°C° 0,1 mm 2 m/s 582 mmHg 92%
    09:00 -23°C° 0,1 mm 2 m/s 583 mmHg 89%
    10:00 -21°C° 0,1 mm 2 m/s 583 mmHg 87%
    11:00 -20°C° 0,1 mm 2 m/s 583 mmHg 85%
    12:00 -19°C° 0,1 mm 2 m/s 583 mmHg 84%
    13:00 -18°C° 0,1 mm 2 m/s 584 mmHg 82%
    14:00 -18°C° 0,1 mm 2 m/s 583 mmHg 83%
    15:00 -19°C° 0,1 mm 2 m/s 583 mmHg 84%
    16:00 -19°C° 0,1 mm 2 m/s 583 mmHg 85%
    17:00 -20°C° 0,1 mm 2 m/s 583 mmHg 88%
    18:00 -21°C° 0,1 mm 2 m/s 583 mmHg 91%
    19:00 -24°C° 0,1 mm 2 m/s 582 mmHg 95%
    20:00 -24°C° 0,1 mm 2 m/s 582 mmHg 95%
    21:00 -25°C° 0,1 mm 2 m/s 582 mmHg 95%
    22:00 -25°C° 0,1 mm 2 m/s 582 mmHg 95%
    23:00 -26°C° 0 mm 2 m/s 582 mmHg 94%
    Arată mai mult